QPF
0.02 0.01 0.00 0.00 0.00 0.00 0.00 0.00 0.00 0.00 0.00 0.00 0.00 0.00 0.00 0.00 0.00 0.00 0.00 0.00 0.00 0.00 0.00 0.00 0.00 0.00 0.00 0.00 0.00 0.00 0.00 0.00 0.00 0.00 0.00 0.00 0.00 0.00 0.00 0.00 0.00 0.00 0.00
0.02 0.02 0.01 0.00 0.00 0.00 0.00 0.00 0.00 0.00 0.00 0.00 0.00 0.00 0.00 0.00 0.00 0.00 0.00 0.00 0.00 0.00 0.00 0.00 0.00 0.00 0.00 0.00 0.00 0.00 0.00 0.00 0.00 0.00 0.00 0.00 0.00 0.00 0.00 0.00 0.00 0.00 0.00
0.04 0.03 0.00 0.00 0.00 0.00 0.00 0.00 0.00 0.00 0.00 0.00 0.00 0.00 0.00 0.00 0.00 0.00 0.00 0.00 0.00 0.00 0.00 0.00 0.00 0.00 0.00 0.00 0.00 0.00 0.00 0.00 0.00 0.00 0.00 0.00 0.00 0.00 0.00 0.00 0.00 0.00 0.00
0.04 0.04 0.00 0.00 0.00 0.00 0.00 0.00 0.00 0.00 0.00 0.00 0.00 0.00 0.00 0.00 0.00 0.00 0.00 0.00 0.00 0.00 0.00 0.00 0.00 0.00 0.00 0.00 0.00 0.01 0.01 0.00 0.00 0.00 0.00 0.00 0.00 0.00 0.00 0.00 0.00 0.00 0.00
0.09 0.07 0.01 0.00 0.00 0.00 0.00 0.00 0.00 0.00 0.00 0.00 0.00 0.00 0.00 0.00 0.00 0.00 0.00 0.00 0.00 0.00 0.00 0.00 0.00 0.00 0.02 0.01 0.00 0.00 0.00 0.00 0.00 0.00 0.00 0.00 0.00 0.00 0.00 0.00 0.00 0.00 0.00
0.07 0.06 0.00 0.00 0.00 0.00 0.00 0.00 0.00 0.00 0.00 0.00 0.00 0.00 0.00 0.00 0.00 0.00 0.00 0.00 0.00 0.00 0.00 0.00 0.00 0.00 0.02 0.01 0.00 0.00 0.00 0.00 0.00 0.00 0.00 0.00 0.00 0.00 0.00 0.00 0.00 0.00 0.00
0.03 0.03 0.00 0.00 0.00 0.00 0.00 0.00 0.00 0.00 0.00 0.00 0.00 0.00 0.00 0.00 0.00 0.00 0.00 0.00 0.00 0.00 0.00 0.00 0.00 0.00 0.00 0.00 0.00 0.00 0.00 0.00 0.00 0.00 0.00 0.00 0.00 0.00 0.00 0.00 0.00 0.00 0.00
0.01 0.01 0.01 0.00 0.00 0.00 0.00 0.00 0.00 0.00 0.00 0.00 0.00 0.00 0.00 0.00 0.00 0.00 0.00 0.00 0.00 0.00 0.00 0.00 0.00 0.00 0.00 0.00 0.00 0.00 0.00 0.00 0.00 0.00 0.00 0.00 0.00 0.00 0.00 0.00 0.00 0.00 0.00
0.05 0.03 0.01 0.01 0.00 0.00 0.00 0.00 0.00 0.00 0.00 0.00 0.00 0.00 0.00 0.00 0.00 0.00 0.00 0.00 0.00 0.00 0.00 0.00 0.00 0.00 0.00 0.00 0.00 0.00 0.00 0.00 0.00 0.00 0.00 0.00 0.00 0.01 0.01 0.00 0.00 0.00 0.00
0.02 0.05 0.02 0.00 0.00 0.00 0.00 0.00 0.00 0.00 0.00 0.00 0.00 0.00 0.00 0.00 0.00 0.00 0.01 0.02 0.00 0.00 0.00 0.00 0.00 0.00 0.00 0.00 0.00 0.00 0.00 0.00 0.00 0.00 0.00 0.00 0.00 0.00 0.00 0.00 0.00 0.00 0.00
0.02 0.02 0.02 0.00 0.00 0.00 0.00 0.00 0.00 0.00 0.00 0.00 0.00 0.00 0.00 0.00 0.00 0.00 0.02 0.01 0.00 0.00 0.00 0.00 0.00 0.00 0.00 0.00 0.00 0.00 0.00 0.00 0.00 0.00 0.00 0.00 0.00 0.00 0.00 0.00 0.00 0.00 0.00
0.04 0.07 0.04 0.02 0.00 0.00 0.00 0.00 0.00 0.00 0.00 0.00 0.00 0.00 0.00 0.00 0.01 0.02 0.01 0.00 0.00 0.00 0.00 0.00 0.00 0.00 0.00 0.00 0.00 0.00 0.00 0.00 0.00 0.00 0.00 0.00 0.00 0.00 0.00 0.00 0.00 0.00 0.01
0.06 0.04 0.04 0.05 0.02 0.00 0.00 0.00 0.00 0.00 0.00 0.00 0.00 0.00 0.00 0.00 0.00 0.00 0.00 0.00 0.00 0.00 0.00 0.00 0.00 0.00 0.00 0.00 0.00 0.00 0.00 0.00 0.00 0.00 0.00 0.00 0.00 0.00 0.00 0.00 0.00 0.00 0.00
0.04 0.04 0.04 0.03 0.00 0.00 0.00 0.00 0.00 0.00 0.00 0.00 0.00 0.00 0.00 0.00 0.00 0.00 0.00 0.00 0.00 0.00 0.00 0.00 0.00 0.00 0.00 0.00 0.00 0.00 0.00 0.00 0.00 0.00 0.00 0.00 0.00 0.00 0.00 0.00 0.00 0.00 0.00
0.03 0.04 0.05 0.00 0.00 0.00 0.00 0.00 0.00 0.00 0.00 0.00 0.00 0.00 0.00 0.00 0.00 0.00 0.00 0.00 0.00 0.00 0.00 0.00 0.00 0.00 0.00 0.00 0.00 0.00 0.00 0.00 0.00 0.00 0.00 0.00 0.00 0.00 0.00 0.00 0.00 0.00 0.00
0.03 0.02 0.02 0.01 0.00 0.00 0.00 0.00 0.00 0.00 0.00 0.00 0.00 0.00 0.00 0.00 0.00 0.00 0.00 0.00 0.00 0.00 0.00 0.00 0.00 0.00 0.00 0.00 0.00 0.00 0.00 0.00 0.00 0.00 0.00 0.00 0.00 0.00 0.00 0.00 0.00 0.00 0.00
0.03 0.02 0.01 0.00 0.00 0.00 0.00 0.00 0.00 0.00 0.00 0.00 0.00 0.00 0.00 0.00 0.00 0.00 0.00 0.00 0.00 0.00 0.00 0.00 0.00 0.00 0.00 0.00 0.00 0.00 0.00 0.00 0.00 0.00 0.00 0.00 0.00 0.00 0.00 0.00 0.00 0.00 0.00
0.02 0.01 0.00 0.00 0.00 0.00 0.00 0.00 0.00 0.00 0.00 0.00 0.00 0.00 0.00 0.00 0.00 0.00 0.00 0.00 0.00 0.00 0.00 0.00 0.00 0.00 0.00 0.00 0.00 0.00 0.00 0.00 0.00 0.00 0.00 0.00 0.00 0.00 0.00 0.00 0.00 0.00 0.00
0.02 0.01 0.00 0.00 0.00 0.00 0.00 0.00 0.00 0.00 0.00 0.00 0.00 0.00 0.00 0.00 0.00 0.00 0.00 0.00 0.00 0.00 0.00 0.00 0.00 0.00 0.00 0.00 0.00 0.00 0.00 0.00 0.00 0.00 0.00 0.00 0.00 0.00 0.00 0.00 0.00 0.00 0.00
0.01 0.01 0.00 0.00 0.00 0.00 0.00 0.00 0.00 0.00 0.00 0.00 0.00 0.00 0.00 0.00 0.00 0.00 0.00 0.00 0.00 0.00 0.00 0.00 0.00 0.00 0.00 0.00 0.00 0.00 0.00 0.00 0.00 0.00 0.00 0.00 0.00 0.00 0.00 0.00 0.00 0.00 0.00
0.01 0.01 0.00 0.00 0.00 0.00 0.00 0.00 0.00 0.00 0.00 0.00 0.00 0.00 0.00 0.00 0.00 0.00 0.00 0.00 0.00 0.00 0.00 0.00 0.00 0.00 0.00 0.00 0.00 0.00 0.00 0.00 0.00 0.00 0.00 0.00 0.00 0.00 0.00 0.00 0.00 0.00 0.00
0.01 0.01 0.00 0.00 0.00 0.00 0.00 0.00 0.00 0.00 0.00 0.00 0.00 0.00 0.00 0.00 0.00 0.00 0.00 0.00 0.00 0.00 0.00 0.00 0.00 0.00 0.00 0.00 0.00 0.00 0.00 0.00 0.00 0.00 0.00 0.00 0.00 0.00 0.00 0.00 0.00 0.00 0.00
0.01 0.00 0.00 0.00 0.00 0.00 0.00 0.00 0.00 0.00 0.00 0.00 0.00 0.00 0.00 0.00 0.00 0.00 0.00 0.00 0.00 0.00 0.00 0.00 0.00 0.00 0.00 0.00 0.00 0.00 0.00 0.00 0.00 0.00 0.00 0.00 0.00 0.00 0.00 0.00 0.00 0.00 0.00
0.00 0.00 0.00 0.00 0.00 0.00 0.00 0.00 0.00 0.00 0.00 0.00 0.00 0.00 0.00 0.00 0.00 0.00 0.00 0.00 0.00 0.00 0.00 0.00 0.00 0.00 0.00 0.00 0.00 0.00 0.00 0.00 0.00 0.00 0.00 0.00 0.00 0.00 0.00 0.00 0.00 0.00 0.00
0.00 0.00 0.00 0.00 0.00 0.00 0.00 0.00 0.00 0.00 0.00 0.00 0.00 0.00 0.00 0.00 0.00 0.00 0.00 0.00 0.00 0.00 0.00 0.00 0.00 0.00 0.00 0.00 0.00 0.00 0.00 0.00 0.00 0.00 0.00 0.00 0.00 0.00 0.00 0.00 0.00 0.01 0.00
0.00 0.00 0.00 0.00 0.00 0.00 0.00 0.00 0.00 0.00 0.00 0.00 0.00 0.00 0.00 0.00 0.00 0.00 0.00 0.00 0.00 0.00 0.00 0.00 0.00 0.00 0.00 0.00 0.00 0.00 0.00 0.00 0.00 0.00 0.00 0.00 0.00 0.00 0.00 0.00 0.00 0.00 0.00
MSLP
1014.73 1015.68 1015.96 1016.50 1017.26 1017.80 1018.20 1018.61 1018.95 1019.34 1019.73 1020.19 1020.56 1020.68 1020.87 1021.16 1021.41 1021.78 1021.86 1021.96 1022.18 1022.18 1022.07 1021.88 1021.61 1021.54 1021.26 1021.07 1020.91 1021.07 1021.25 1021.53 1021.87 1021.24 1020.81 1020.04 1019.70 1019.22 1018.58 1018.12 1017.89 1017.77 1017.79
1014.09 1014.93 1015.63 1016.84 1017.53 1017.69 1018.14 1018.67 1018.92 1019.38 1019.64 1019.71 1020.19 1020.53 1020.71 1021.05 1021.33 1021.57 1021.72 1021.82 1021.97 1022.05 1021.79 1021.68 1021.49 1021.25 1021.01 1020.73 1020.71 1020.67 1020.62 1020.69 1021.17 1021.20 1020.76 1020.30 1019.79 1019.32 1018.85 1018.54 1018.11 1017.87 1017.84
1013.96 1014.61 1015.65 1016.64 1017.58 1017.88 1018.24 1018.54 1018.93 1019.39 1019.54 1019.66 1020.00 1020.41 1020.48 1020.74 1021.02 1021.25 1021.39 1021.56 1021.62 1021.51 1021.38 1021.38 1021.19 1021.00 1020.93 1020.59 1020.30 1020.23 1020.13 1020.33 1020.65 1020.93 1020.82 1020.22 1019.68 1019.29 1018.95 1018.73 1018.54 1018.22 1017.76
1014.11 1014.80 1015.60 1016.64 1017.48 1017.78 1018.11 1018.69 1018.87 1018.94 1019.25 1019.66 1019.88 1020.30 1020.24 1020.46 1020.70 1020.88 1021.04 1021.21 1021.29 1021.23 1021.15 1021.09 1020.87 1020.72 1020.50 1020.18 1019.88 1019.64 1019.86 1020.13 1020.31 1020.49 1020.47 1020.17 1019.81 1019.29 1019.18 1019.11 1018.79 1018.44 1017.96
1014.27 1014.96 1015.30 1016.08 1017.02 1017.77 1018.13 1018.35 1018.52 1018.84 1018.98 1019.28 1019.75 1020.11 1020.17 1020.27 1020.33 1020.57 1020.76 1020.92 1020.97 1021.01 1020.85 1020.72 1020.34 1019.95 1019.72 1019.62 1019.37 1019.60 1019.79 1020.07 1020.17 1020.30 1020.41 1020.09 1019.73 1019.47 1019.37 1019.06 1018.96 1018.60 1017.91
1014.20 1014.75 1014.75 1015.37 1016.43 1017.27 1017.97 1018.54 1018.73 1018.96 1018.84 1019.18 1019.74 1019.79 1019.99 1020.04 1020.05 1020.21 1020.40 1020.59 1020.59 1020.68 1020.66 1020.30 1019.90 1019.56 1019.41 1019.53 1019.46 1019.57 1019.83 1019.86 1020.04 1020.21 1020.03 1019.81 1019.46 1019.22 1019.06 1018.95 1018.88 1018.83 1018.61
1013.60 1014.26 1014.47 1014.43 1015.79 1016.64 1017.47 1018.10 1018.51 1018.64 1018.91 1019.18 1019.31 1019.47 1019.67 1019.80 1019.88 1019.98 1020.16 1020.26 1020.44 1020.53 1020.38 1020.05 1019.78 1019.57 1019.41 1019.53 1019.60 1019.60 1019.72 1019.83 1019.72 1019.85 1019.69 1019.34 1018.93 1018.67 1018.75 1018.64 1018.52 1018.46 1018.35
1013.14 1013.56 1014.02 1014.42 1015.02 1015.71 1016.58 1017.23 1017.98 1018.56 1018.54 1018.71 1018.66 1019.04 1019.37 1019.51 1019.57 1019.79 1019.97 1020.15 1020.17 1020.16 1020.02 1019.83 1019.79 1019.79 1019.64 1019.62 1019.69 1019.83 1019.82 1019.69 1019.56 1019.41 1019.15 1018.73 1018.32 1018.19 1018.21 1018.02 1017.91 1017.77 1017.42
1012.71 1012.97 1013.55 1013.99 1014.48 1014.78 1015.72 1016.64 1017.37 1018.11 1018.34 1018.18 1018.27 1018.67 1019.08 1019.24 1019.34 1019.49 1019.70 1019.89 1020.09 1020.07 1019.94 1019.77 1019.79 1019.88 1019.74 1019.77 1019.85 1019.99 1019.94 1019.61 1019.20 1018.87 1018.60 1018.24 1017.77 1017.43 1017.37 1017.64 1017.43 1017.46 1017.04
1012.19 1012.76 1013.01 1013.33 1013.86 1014.70 1014.85 1015.77 1016.88 1017.31 1017.46 1017.62 1018.24 1018.33 1018.61 1018.84 1019.09 1019.25 1019.40 1019.70 1019.89 1020.10 1020.07 1019.97 1019.92 1019.88 1019.81 1019.84 1019.96 1019.97 1019.91 1019.74 1019.39 1018.90 1018.38 1017.89 1017.45 1017.09 1016.91 1017.04 1017.00 1017.07 1016.85
1011.89 1012.12 1012.48 1013.42 1013.20 1014.44 1015.07 1015.69 1016.44 1016.96 1017.57 1017.72 1018.08 1018.17 1018.50 1018.69 1018.97 1019.24 1019.46 1019.59 1019.81 1020.04 1020.15 1020.10 1020.02 1019.94 1019.90 1019.99 1019.80 1019.68 1019.54 1019.43 1019.27 1019.01 1018.51 1017.98 1017.50 1017.16 1016.90 1016.53 1016.40 1016.39 1016.16
1011.71 1012.00 1012.48 1012.71 1013.49 1014.08 1014.63 1015.48 1016.16 1016.88 1017.82 1018.07 1018.19 1018.41 1018.36 1018.58 1018.79 1019.04 1019.44 1019.53 1019.47 1019.66 1019.89 1019.63 1019.72 1019.67 1019.70 1019.67 1019.59 1019.33 1019.23 1019.11 1019.05 1018.90 1018.57 1018.16 1017.74 1017.21 1016.77 1016.42 1016.01 1015.67 1015.38
1011.52 1011.81 1012.03 1012.04 1012.86 1013.61 1015.04 1015.88 1016.35 1017.20 1017.55 1017.78 1017.94 1018.15 1018.38 1018.62 1018.87 1018.96 1019.28 1019.32 1019.38 1019.54 1019.51 1019.55 1019.52 1019.38 1019.45 1019.49 1019.38 1019.24 1019.08 1019.05 1019.19 1019.01 1018.59 1018.15 1017.66 1017.09 1016.58 1016.14 1015.53 1015.15 1014.79
1011.07 1011.42 1012.15 1012.10 1013.10 1013.79 1015.03 1015.47 1016.66 1017.04 1017.46 1017.66 1017.64 1017.73 1018.10 1018.83 1018.89 1019.08 1019.21 1019.22 1019.45 1019.39 1019.36 1019.28 1019.10 1018.98 1019.22 1019.38 1019.17 1019.13 1019.10 1019.00 1018.99 1018.90 1018.53 1017.95 1017.34 1016.91 1016.57 1016.08 1015.78 1015.26 1015.01
1011.15 1011.40 1011.97 1012.44 1012.94 1014.52 1015.50 1016.07 1016.21 1016.55 1016.81 1017.18 1017.00 1017.23 1017.91 1018.54 1018.72 1018.92 1019.05 1019.22 1019.37 1019.40 1019.37 1019.40 1019.34 1019.24 1019.42 1019.45 1019.28 1019.19 1019.05 1018.91 1018.81 1018.48 1018.22 1017.78 1017.24 1016.76 1016.35 1015.93 1015.71 1015.41 1015.25
1011.01 1011.16 1011.65 1012.13 1013.21 1014.31 1015.43 1016.60 1016.48 1016.26 1016.24 1016.51 1016.51 1017.05 1017.80 1018.07 1018.48 1018.68 1018.83 1019.10 1019.19 1019.12 1019.26 1019.46 1019.31 1019.21 1019.32 1019.33 1019.29 1019.34 1018.95 1018.68 1018.50 1018.25 1017.88 1017.17 1016.90 1016.59 1016.28 1015.92 1015.63 1015.41 1015.11
1010.72 1010.99 1011.38 1012.38 1012.99 1014.26 1015.24 1015.91 1016.24 1016.65 1016.39 1016.63 1017.08 1017.65 1017.86 1017.98 1018.31 1018.52 1018.83 1018.94 1018.87 1018.85 1019.09 1019.12 1019.12 1019.09 1019.10 1019.13 1019.23 1019.19 1018.84 1018.35 1018.11 1017.93 1017.49 1017.01 1016.77 1016.56 1016.28 1015.93 1015.56 1015.23 1014.71
1010.62 1010.75 1011.11 1012.02 1012.84 1014.13 1014.72 1015.41 1015.45 1016.21 1016.92 1017.55 1017.97 1018.10 1017.85 1017.96 1018.15 1018.46 1018.77 1018.84 1019.01 1018.99 1019.12 1019.12 1019.16 1019.01 1018.86 1019.05 1019.13 1019.07 1018.62 1018.30 1018.25 1017.93 1017.50 1017.18 1016.86 1016.61 1016.17 1015.79 1015.41 1015.10 1014.67
1010.29 1010.35 1010.93 1011.27 1012.54 1013.37 1014.17 1014.84 1015.28 1016.05 1016.67 1017.19 1017.99 1017.79 1017.79 1018.04 1018.26 1018.38 1018.58 1018.96 1019.17 1019.19 1019.15 1019.09 1019.23 1019.02 1018.84 1018.81 1018.74 1018.59 1018.51 1018.45 1018.24 1017.93 1017.52 1017.15 1016.78 1016.49 1016.01 1015.57 1015.13 1014.71 1014.28
1009.71 1009.82 1010.53 1011.35 1012.37 1013.21 1014.02 1014.55 1015.45 1015.97 1016.64 1017.05 1017.26 1017.38 1017.80 1018.11 1018.47 1018.65 1018.74 1018.90 1019.08 1019.10 1019.04 1019.12 1018.99 1018.91 1018.83 1018.78 1018.66 1018.64 1018.64 1018.43 1018.15 1017.81 1017.47 1017.08 1016.64 1016.30 1015.86 1015.35 1014.89 1014.46 1013.94
1009.11 1009.62 1009.98 1011.08 1012.15 1012.56 1013.33 1014.01 1014.80 1015.71 1016.44 1016.59 1016.85 1017.16 1017.37 1018.05 1018.58 1018.84 1019.10 1019.26 1019.24 1019.15 1019.01 1018.95 1018.83 1018.88 1018.85 1018.83 1018.82 1018.71 1018.56 1018.36 1018.11 1017.82 1017.41 1016.92 1016.47 1016.01 1015.52 1015.02 1014.60 1014.14 1013.65
1008.32 1008.87 1009.84 1010.96 1011.68 1012.30 1012.70 1013.45 1014.35 1015.19 1015.82 1016.27 1016.93 1017.60 1017.77 1018.09 1018.62 1019.13 1019.31 1019.25 1019.17 1018.93 1018.84 1018.84 1018.82 1018.85 1018.96 1018.95 1018.84 1018.67 1018.53 1018.31 1017.94 1017.61 1017.22 1016.72 1016.20 1015.71 1015.23 1014.80 1014.29 1013.77 1013.28
1007.52 1008.36 1009.69 1010.65 1011.10 1011.85 1012.50 1013.18 1013.99 1014.81 1015.61 1016.31 1017.10 1017.71 1018.05 1018.62 1019.05 1019.33 1019.39 1019.26 1019.13 1018.96 1018.86 1018.84 1018.84 1019.03 1019.05 1018.97 1018.80 1018.61 1018.39 1018.04 1017.70 1017.41 1016.99 1016.49 1015.96 1015.50 1015.07 1014.53 1013.95 1013.37 1012.82
1007.44 1008.55 1009.55 1010.14 1010.95 1011.57 1012.39 1013.21 1014.09 1014.95 1015.86 1016.79 1017.46 1018.10 1018.63 1019.02 1019.17 1019.40 1019.55 1019.45 1019.40 1019.13 1018.98 1018.88 1018.90 1019.03 1019.08 1019.01 1018.76 1018.41 1018.02 1017.60 1017.24 1016.90 1016.55 1016.18 1015.68 1015.14 1014.66 1014.14 1013.51 1012.85 1012.30
1008.09 1008.85 1009.38 1010.10 1010.68 1011.73 1012.62 1013.51 1014.50 1015.56 1016.48 1017.24 1017.99 1018.61 1019.07 1019.20 1019.54 1019.56 1019.66 1019.82 1019.56 1019.42 1019.29 1019.17 1019.12 1019.06 1019.05 1018.84 1018.49 1018.07 1017.64 1017.23 1016.82 1016.42 1016.13 1015.76 1015.30 1014.75 1014.20 1013.67 1012.87 1012.25 1012.08
1008.39 1008.86 1009.44 1010.16 1011.12 1012.25 1013.28 1014.20 1015.32 1016.26 1017.14 1017.95 1018.52 1018.95 1019.14 1019.52 1019.67 1019.88 1019.97 1020.23 1020.04 1019.79 1019.61 1019.47 1019.24 1019.10 1018.95 1018.71 1018.32 1017.91 1017.46 1017.00 1016.55 1016.09 1015.80 1015.36 1014.79 1014.18 1013.59 1012.95 1012.35 1012.14 1011.92
Thickness
5684 5674 5671 5666 5658 5655 5651 5646 5640 5635 5628 5621 5613 5607 5600 5592 5584 5574 5566 5557 5548 5540 5534 5528 5524 5518 5514 5510 5507 5501 5495 5489 5484 5484 5481 5483 5484 5484 5486 5485 5483 5482 5480
5684 5674 5668 5658 5650 5649 5646 5638 5634 5628 5623 5620 5610 5603 5597 5587 5578 5569 5562 5553 5544 5536 5531 5525 5519 5516 5511 5508 5503 5498 5495 5490 5482 5478 5475 5474 5475 5476 5475 5473 5473 5471 5469
5677 5671 5660 5653 5643 5641 5637 5632 5627 5620 5617 5613 5607 5598 5592 5584 5575 5567 5559 5549 5541 5534 5528 5520 5514 5509 5503 5501 5499 5494 5491 5485 5477 5471 5467 5466 5466 5466 5465 5462 5461 5460 5459
5671 5664 5654 5645 5639 5636 5631 5625 5622 5619 5613 5606 5601 5592 5588 5580 5572 5564 5555 5545 5535 5529 5522 5515 5510 5504 5500 5497 5494 5491 5485 5478 5472 5466 5460 5457 5455 5455 5452 5450 5446 5445 5444
5660 5653 5651 5642 5635 5628 5623 5621 5618 5614 5610 5603 5595 5587 5581 5576 5569 5559 5550 5539 5531 5523 5517 5510 5508 5504 5499 5494 5490 5482 5476 5469 5463 5458 5450 5447 5444 5442 5439 5436 5433 5431 5432
5655 5648 5648 5641 5633 5625 5617 5612 5609 5605 5602 5592 5588 5585 5577 5570 5564 5556 5546 5535 5528 5520 5511 5507 5504 5501 5495 5487 5481 5475 5466 5460 5454 5446 5442 5438 5434 5430 5427 5423 5419 5415 5412
5654 5647 5644 5642 5630 5624 5615 5609 5604 5599 5593 5588 5585 5579 5572 5564 5558 5551 5541 5532 5522 5513 5508 5503 5498 5494 5488 5479 5471 5465 5458 5450 5445 5436 5431 5427 5426 5421 5414 5410 5408 5405 5404
5648 5645 5637 5634 5630 5624 5615 5609 5601 5595 5590 5586 5585 5576 5568 5560 5553 5544 5535 5526 5518 5509 5504 5498 5490 5483 5478 5471 5463 5454 5447 5440 5435 5428 5422 5418 5413 5410 5405 5403 5402 5400 5402
5644 5641 5636 5633 5627 5624 5615 5605 5599 5590 5586 5584 5581 5573 5563 5555 5548 5540 5530 5522 5512 5504 5498 5491 5483 5475 5469 5461 5452 5443 5435 5428 5422 5416 5409 5405 5403 5401 5398 5395 5397 5397 5401
5641 5633 5631 5629 5620 5618 5617 5606 5597 5590 5588 5584 5575 5569 5560 5551 5543 5534 5526 5515 5507 5498 5490 5482 5476 5467 5459 5450 5441 5434 5424 5415 5408 5402 5399 5398 5396 5395 5395 5394 5395 5394 5395
5637 5634 5630 5620 5618 5610 5602 5598 5591 5586 5579 5576 5570 5564 5554 5546 5537 5527 5518 5509 5499 5490 5482 5474 5466 5458 5450 5441 5434 5425 5416 5408 5402 5398 5396 5395 5394 5394 5395 5396 5396 5395 5395
5632 5626 5623 5619 5610 5606 5597 5590 5586 5580 5570 5565 5560 5555 5548 5540 5532 5523 5511 5503 5496 5486 5476 5471 5462 5454 5444 5435 5426 5418 5410 5405 5400 5396 5394 5393 5393 5393 5395 5395 5396 5396 5396
5626 5621 5619 5619 5610 5603 5593 5582 5578 5568 5564 5560 5557 5550 5544 5533 5525 5517 5507 5499 5491 5481 5473 5465 5457 5448 5438 5428 5420 5413 5409 5402 5396 5393 5391 5391 5391 5392 5394 5394 5396 5396 5398
5622 5618 5610 5603 5599 5592 5585 5578 5566 5563 5559 5556 5554 5551 5539 5526 5520 5511 5502 5494 5484 5476 5468 5460 5454 5444 5432 5423 5418 5412 5406 5401 5395 5391 5390 5391 5392 5391 5391 5392 5392 5394 5394
5614 5611 5604 5599 5591 5579 5571 5570 5566 5562 5559 5553 5554 5551 5535 5523 5517 5506 5497 5488 5476 5468 5461 5453 5445 5436 5426 5418 5415 5410 5405 5400 5395 5393 5391 5390 5391 5391 5391 5391 5391 5392 5391
5608 5606 5599 5591 5585 5577 5567 5558 5557 5559 5559 5555 5553 5542 5529 5522 5513 5503 5493 5481 5472 5465 5457 5446 5440 5431 5424 5419 5413 5407 5403 5399 5395 5393 5392 5394 5393 5392 5391 5390 5390 5389 5389
5605 5601 5595 5585 5579 5571 5563 5560 5557 5553 5553 5548 5541 5529 5522 5517 5507 5497 5486 5477 5471 5463 5453 5445 5439 5430 5424 5417 5410 5404 5401 5400 5397 5394 5395 5394 5392 5391 5390 5387 5388 5388 5391
5596 5592 5588 5582 5573 5566 5562 5559 5559 5554 5546 5536 5524 5519 5517 5512 5502 5491 5480 5473 5466 5458 5449 5442 5435 5429 5424 5415 5409 5403 5401 5399 5394 5392 5392 5390 5389 5387 5387 5387 5386 5386 5387
5589 5588 5582 5576 5569 5565 5564 5556 5552 5546 5540 5528 5518 5518 5514 5506 5495 5486 5476 5469 5460 5452 5445 5439 5428 5424 5420 5415 5410 5405 5400 5396 5392 5390 5389 5388 5386 5385 5385 5385 5385 5386 5387
5585 5584 5580 5573 5567 5565 5560 5553 5546 5541 5529 5524 5521 5517 5508 5498 5488 5480 5472 5463 5455 5448 5441 5433 5426 5421 5417 5412 5407 5402 5397 5394 5391 5389 5387 5385 5384 5383 5383 5383 5383 5383 5384
5580 5575 5574 5568 5565 5566 5558 5554 5547 5536 5530 5529 5522 5515 5505 5495 5483 5473 5464 5455 5448 5441 5435 5429 5425 5419 5414 5408 5403 5398 5395 5391 5388 5386 5384 5384 5383 5383 5383 5383 5382 5382 5381
5577 5574 5569 5564 5562 5560 5558 5555 5548 5540 5534 5528 5518 5506 5496 5487 5476 5465 5456 5450 5443 5440 5434 5426 5423 5418 5412 5405 5400 5396 5392 5388 5386 5384 5383 5383 5382 5382 5381 5380 5379 5380 5379
5577 5572 5566 5562 5563 5557 5557 5557 5549 5540 5532 5523 5512 5501 5489 5478 5468 5459 5452 5446 5441 5437 5430 5423 5420 5414 5408 5403 5398 5395 5391 5388 5386 5384 5382 5381 5380 5379 5378 5378 5378 5379 5380
5572 5568 5563 5564 5560 5559 5556 5550 5542 5533 5524 5513 5502 5490 5479 5471 5463 5454 5446 5442 5436 5431 5425 5421 5417 5411 5404 5399 5396 5393 5391 5389 5388 5385 5383 5380 5379 5379 5379 5378 5378 5380 5382
5564 5562 5562 5560 5562 5556 5550 5544 5535 5525 5514 5502 5492 5481 5471 5464 5457 5451 5443 5435 5430 5425 5420 5417 5413 5408 5402 5398 5396 5394 5391 5389 5388 5386 5383 5382 5381 5381 5380 5380 5382 5384 5383
5558 5562 5562 5561 5555 5548 5543 5535 5524 5514 5504 5493 5483 5474 5468 5460 5453 5444 5439 5428 5423 5419 5416 5413 5410 5405 5401 5398 5395 5393 5392 5390 5389 5388 5386 5385 5384 5385 5385 5386 5387 5386 5386